Location: Sawmill Trailhead
(33.5800°N, 116.4497°W)
Time: 22:18:29
(UTC-07:00)

Uosat F - Visible Passes

Search period start: 27 April 2015 00:00
Search period end: 07 May 2015 00:00
Orbit: 750 x 762 km, 98.7° (Epoch: 27 April)

Date Brightness Start Highest point End Pass type
(mag) Time Alt. Az. Time Alt. Az. Time Alt. Az.
27 Apr 11.3 05:34:22 10° NNE 05:39:23 76° ESE 05:44:23 10° S visible
28 Apr 13.1 04:55:41 10° NE 04:59:56 29° E 05:04:17 10° SSE visible
29 Apr 14.1 04:19:26 10° E 04:20:12 10° E 04:21:22 10° ESE visible
30 Apr 12.2 05:15:25 10° NNE 05:20:13 46° E 05:25:03 10° S visible
01 May 13.7 04:37:22 10° NE 04:40:38 18° E 04:44:06 10° SE visible
03 May 13.1 04:56:43 10° NE 05:01:00 29° E 05:05:21 10° SSE visible
04 May 14.1 04:20:21 10° E 04:21:15 11° E 04:22:33 10° ESE visible
05 May 12.2 05:16:28 10° NNE 05:21:17 47° E 05:26:06 10° S visible
06 May 13.7 04:38:23 10° NE 04:41:41 18° E 04:45:11 10° SE visible
